[[[{"header":{"parameterUnit":"kt","parameterCategory":2,"dx":1,"dy":1,"la1":30.253999710083008,"la2":30.299108505249023,"lo1":-89.0895004272461,"lo2":-89.04439544677734,"nx":28,"ny":28,"refTime":"2022-10-13T21:00:00:Z","depth":0,"parameterNumber":1,"parameterNumberName":"U-component_of_WINDS"},"data":[-1.1138,-1.117,-1.1135,-1.1157,-1.1129,-1.1138,-1.113,-1.1117,-1.1097,-1.1105,-1.1104,-1.1072,-1.1039,-1.103,-1.1028,-1.1013,-1.1017,-1.1055,-1.1033,-1.089,-1.0868,-1.0847,-1.0838,-1.1055,-1.1056,-1.1186,-1.1187,-1.1188,-1.1042,-1.1014,-1.1014,-1.0991,-1.0991,-1.0933,-1.091,-1.0915,-1.0925,-1.09,-1.0895,-1.09,-1.0899,-1.0851,-1.0844,-1.0861,-1.0834,-1.0862,-1.0862,-1.0858,-1.0704,-1.0694,-1.0884,-1.0884,-1.0884,-1.0884,-1.0884,-1.0884,-1.0858,-1.0879,-1.0843,-1.0842,-1.082,-1.0804,-1.0818,-1.0777,-1.0777,-1.0764,-1.072,-1.0731,-1.07,-1.0673,-1.0655,-1.0663,-1.0626,-1.0645,-1.0651,-1.0658,-1.0672,-1.0495,-1.066,-1.0659,-1.0658,-1.0658,-1.0657,0,-1.0714,-1.0682,-1.0678,-1.0665,-1.0662,-1.0648,-1.0629,-1.0636,-1.0556,-1.0559,-1.0561,-1.0556,-1.0547,-1.0546,-1.0531,-1.0507,-1.0448,-1.0436,-1.0451,-1.0474,-1.0499,-1.049,-1.0244,-1.0432,-1.043,-1.0429,-1.0427,-1.0427,-1.0529,-1.0555,-1.0498,-1.0501,-1.048,-1.0485,-1.0481,-1.0407,-1.0406,-1.0372,-1.0394,-1.039,-1.0384,-1.0394,-1.0345,-1.0338,-1.031,-1.0387,-1.0309,-1.0331,-1.0316,-1.0316,-1.032,-1.0404,-1.0407,-1.041,-1.0411,0,-1.0429,-1.0368,-1.0396,-1.0336,-1.0322,-1.0354,-1.0303,-1.032,-1.0277,-1.0294,-1.0294,-1.0227,-1.023,-1.0168,-1.0158,-1.0127,-1.0184,-1.0154,-1.0195,-1.0187,-1.0252,-1.0249,-1.0466,-1.0493,-1.0263,-1.0265,-1.0267,0,-1.0249,-1.0286,-1.0192,-1.0212,-1.0251,-1.0174,-1.0216,-1.0182,-1.0151,-1.0164,-1.0085,-1.0099,-1.0016,-1.0022,-0.9974,-1.0009,-1.0005,-0.9984,-0.9972,-0.9993,-0.9997,-0.9994,-0.9985,-0.9937,-0.9936,-0.9935,-0.9934,0,-1.0102,-1.0092,-1.0123,-1.0111,-1.005,-1.0067,-1.0042,-1.0005,-1.0001,-0.9985,-0.9983,-0.997,-0.9964,-0.9956,-0.9895,-0.9845,-0.9935,-0.9853,-0.9913,-0.9915,-0.9938,-0.9938,-1.0144,-0.9933,-0.9933,-0.9932,-0.9932,0,-0.9947,-0.9931,-0.9983,-0.9931,-0.9931,-0.9951,-0.9933,-0.9935,-0.9902,-0.9872,-0.9859,-0.9799,-0.982,-0.9745,-0.9775,-0.9727,-0.9727,-0.9707,-0.971,-0.971,-0.9628,-0.9757,-0.9957,-0.9977,-0.9709,-0.9707,-0.9705,0,-0.9798,-0.9833,-0.9766,-0.9818,-0.9825,-0.9735,-0.9756,-0.9728,-0.969,-0.9691,-0.9649,-0.9651,-0.9581,-0.9573,-0.9596,-0.9553,-0.9615,-0.9542,-0.9551,-0.9552,-0.9566,-0.9748,-0.9795,-0.9919,-0.9681,-0.9683,-0.9685,0,-0.9674,-0.9596,-0.9609,-0.9593,-0.9541,-0.9546,-0.9569,-0.9553,-0.9559,-0.9534,-0.9553,-0.9552,-0.9501,-0.9488,-0.9436,-0.9463,-0.9571,-0.9404,-0.9402,-0.9439,-0.9661,-0.9706,-0.9727,-0.9531,-0.9534,-0.9536,-0.9665,0,-0.9461,-0.9468,-0.9501,-0.9464,-0.9457,-0.9483,-0.9414,-0.9416,-0.9367,-0.9325,-0.935,-0.9308,-0.9293,-0.9297,-0.9249,-0.933,-0.9307,-0.9251,-0.9174,-0.9293,-0.9334,-0.935,-0.9118,-0.9116,-0.9113,-0.9112,0,0,-0.9336,-0.9344,-0.9268,-0.9286,-0.9276,-0.918,-0.9215,-0.9194,-0.9153,-0.9149,-0.9105,-0.9099,-0.9067,-0.9105,-0.9136,-0.9128,-0.9138,-0.9098,-0.9236,-0.925,-0.9263,-0.9308,-0.9326,-0.9108,-0.9107,-0.9106,-0.9105,0,-0.9243,-0.9209,-0.9243,-0.9217,-0.9176,-0.9129,-0.9137,-0.9079,-0.9054,-0.9075,-0.8997,-0.9004,-0.8999,-0.8976,-0.8965,-0.9091,-0.9033,-0.9091,-0.9184,-0.9215,-0.9232,-0.9247,-0.9296,-0.9314,-0.91,-0.91,-0.91,0,-0.9112,-0.9068,-0.9076,-0.9044,-0.9016,-0.9024,-0.8926,-0.8938,-0.8944,-0.8838,-0.8861,-0.8829,-0.8792,-0.8834,-0.8851,-0.8811,-0.8942,-0.8886,-0.8898,-0.8899,-0.8927,-0.8947,-0.8966,-0.8724,-0.8723,-0.8722,0,0,-0.9042,-0.9046,-0.8975,-0.9018,-0.9006,-0.8935,-0.8932,-0.8882,-0.8849,-0.8836,-0.8793,-0.8765,-0.8761,-0.8761,-0.8753,-0.881,-0.8797,-0.8843,-0.886,-0.8875,-0.8884,-0.8916,-0.8936,-0.8718,-0.8718,-0.8718,0,0,-0.9008,-0.8927,-0.8882,-0.8923,-0.8895,-0.8828,-0.8858,-0.8802,-0.8788,-0.8777,-0.8693,-0.8682,-0.872,-0.8691,-0.8648,-0.8725,-0.865,-0.8659,-0.8743,-0.8765,-0.8782,-0.8789,-0.8542,0,0,0,0,0,-0.8877,-0.8937,-0.8897,-0.8893,-0.8852,-0.885,-0.8844,-0.8776,-0.8725,-0.8751,-0.8706,-0.8642,-0.8651,-0.8611,-0.8609,-0.8658,-0.8669,-0.8677,-0.8686,-0.8807,-0.883,-0.885,0,0,0,0,0,0,-0.8875,-0.887,-0.8895,-0.8832,-0.8822,-0.8847,-0.8746,-0.8729,-0.8721,-0.8708,-0.8652,-0.864,-0.8582,-0.8607,-0.8606,-0.8655,-0.8542,-0.8672,-0.8679,-0.8686,-0.8815,-0.8834,-0.885,0,0,0,0,0,-0.8873,-0.8869,-0.882,-0.8831,-0.8822,-0.8746,-0.8743,-0.8728,-0.8721,-0.865,-0.8635,-0.867,-0.8585,-0.858,-0.8606,-0.8657,-0.8542,-0.8542,-0.8677,-0.8683,-0.8688,-0.8824,0,0,0,0,0,0,-0.8871,-0.8856,-0.8817,-0.8812,-0.8802,-0.8743,-0.8731,-0.8728,-0.8661,-0.8647,-0.8663,-0.8654,-0.8588,-0.8584,-0.858,-0.8662,-0.8542,-0.8542,-0.8542,-0.8681,-0.8686,-0.869,0,0,0,0,0,0,-0.8857,-0.8852,-0.8814,-0.8782,-0.8772,-0.8741,-0.8731,-0.8742,-0.8661,-0.8677,-0.8668,-0.8659,-0.8594,-0.8587,-0.8583,-0.8604,-0.8542,-0.8542,-0.8542,-0.8542,-0.8685,-0.8689,0,0,0,0,0,0,-0.8854,-0.8849,-0.8783,-0.8775,-0.8767,-0.8704,-0.875,-0.8712,-0.8633,-0.8682,-0.8624,-0.862,-0.8599,-0.8594,-0.8586,-0.8609,-0.8605,-0.8542,-0.8542,-0.8542,-0.8542,0,0,0,0,0,0,0,-0.8851,-0.8897,-0.8847,-0.877,-0.8762,-0.8764,-0.8763,-0.8761,-0.8632,-0.8629,-0.8625,-0.8622,-0.8542,-0.8542,-0.8542,-0.8613,0,0,-0.8542,-0.8542,0,0,0,0,0,0,0,0,-0.8897,-0.8897,-0.8847,-0.8846,-0.8845,-0.8764,-0.8763,-0.8762,-0.8632,-0.8629,-0.8626,-0.8623,-0.8542,-0.8542,-0.8542,0,0,0,0,0,0,0,0,0,0,0,0,0,0,0,-0.8847,-0.8846,0,-0.8764,-0.8763,-0.8762,-0.8631,-0.8629,-0.8627,-0.8624,-0.8542,-0.8542,-0.8542,0,0,0,0,0,0,0,0,0,0,0,0,0,0,0,0,0,0,0,0,0,0,0,0,0,0,0,0,0,0,0,0,0,0,0,0,0,0,0,0,0,0,0,0,0,0,0,0,0,0,0,0,0,0,0,0,0,0,0,0,0,0,0,0,0,0,0,0,0]}],[{"header":{"parameterUnit":"kt","parameterCategory":2,"dx":1,"dy":1,"la1":30.253999710083008,"la2":30.299108505249023,"lo1":-89.0895004272461,"lo2":-89.04439544677734,"nx":28,"ny":28,"refTime":"2022-10-13T21:00:00:Z","depth":0,"parameterNumber":2,"parameterNumberName":"V-component_of_WINDS"},"data":[4.6378,4.6346,4.6349,4.6312,4.6307,4.6281,4.6272,4.626,4.6251,4.6217,4.6198,4.6194,4.6182,4.6156,4.6133,4.6131,4.6119,4.6107,4.6105,4.6164,4.6172,4.6179,4.6187,4.6105,4.6105,4.6044,4.6043,4.6043,4.6421,4.6417,4.6399,4.6383,4.6366,4.638,4.6367,4.6351,4.6326,4.6314,4.6295,4.6265,4.6239,4.6231,4.6206,4.6187,4.6189,4.6179,4.6179,4.6176,4.6239,4.6248,4.6178,4.6178,4.6178,4.6178,4.6178,4.6178,4.6498,4.6479,4.6471,4.6451,4.6443,4.6431,4.6412,4.6409,4.6389,4.6366,4.6371,4.6341,4.6327,4.6296,4.6285,4.626,4.627,4.6258,4.6254,4.625,4.6245,4.6329,4.6256,4.6256,4.6256,4.6256,4.6256,0,4.6554,4.6558,4.6541,4.6524,4.651,4.6496,4.6483,4.6471,4.6476,4.6458,4.6433,4.6418,4.6387,4.636,4.6336,4.6327,4.6333,4.6335,4.6326,4.6322,4.6322,4.6318,4.6419,4.6336,4.6337,4.6337,4.6338,4.6338,4.663,4.6608,4.66,4.6588,4.6582,4.6561,4.6548,4.6554,4.654,4.6523,4.6504,4.6479,4.6459,4.6415,4.6407,4.6382,4.6384,4.6352,4.638,4.6378,4.6379,4.6379,4.6376,4.6345,4.6344,4.6344,4.6343,0,4.6671,4.6675,4.6641,4.6635,4.6633,4.6608,4.6602,4.6581,4.658,4.6551,4.6545,4.6541,4.6514,4.6512,4.648,4.6479,4.6432,4.6437,4.6437,4.6437,4.6406,4.6407,4.6311,4.6298,4.6387,4.6386,4.6385,0,4.6735,4.6706,4.6713,4.6693,4.666,4.6667,4.6633,4.6629,4.6618,4.6595,4.6606,4.6584,4.6585,4.6562,4.656,4.6522,4.6517,4.6512,4.6511,4.6509,4.6509,4.6497,4.6499,4.6515,4.6515,4.6516,4.6516,0,4.6797,4.6767,4.6736,4.6729,4.6718,4.6702,4.6696,4.6684,4.6671,4.6653,4.6644,4.6622,4.6609,4.659,4.6588,4.6607,4.6543,4.6567,4.6537,4.6537,4.652,4.652,4.644,4.6517,4.6517,4.6517,4.6517,0,4.6848,4.6834,4.6788,4.6779,4.677,4.6749,4.6729,4.6711,4.6697,4.6696,4.6681,4.6687,4.6656,4.6681,4.6636,4.6661,4.6646,4.664,4.6638,4.6631,4.6658,4.6609,4.6536,4.6526,4.663,4.6631,4.6632,0,4.6916,4.6872,4.6878,4.6834,4.6813,4.6827,4.6803,4.6791,4.6788,4.6767,4.6762,4.6737,4.6756,4.6747,4.6726,4.6718,4.6687,4.6723,4.6686,4.6684,4.6687,4.662,4.6608,4.6553,4.6644,4.6643,4.6642,0,4.697,4.6959,4.6951,4.6943,4.693,4.6912,4.6885,4.6864,4.685,4.6835,4.681,4.6777,4.6788,4.6774,4.6775,4.6753,4.6708,4.6768,4.6767,4.6754,4.6651,4.664,4.663,4.6713,4.6712,4.6711,4.6651,0,4.7041,4.7019,4.6998,4.6981,4.6968,4.694,4.6941,4.6926,4.6931,4.6928,4.6891,4.6879,4.6854,4.6844,4.6847,4.6799,4.6805,4.6817,4.6838,4.6795,4.6775,4.6767,4.6868,4.6868,4.6869,4.6869,0,0,4.7103,4.7073,4.7081,4.7056,4.7044,4.7059,4.7029,4.702,4.6999,4.6989,4.7002,4.6952,4.694,4.6895,4.6882,4.6873,4.6862,4.6877,4.6816,4.681,4.6805,4.6784,4.6776,4.687,4.687,4.6871,4.6871,0,4.7129,4.7124,4.7097,4.7088,4.7075,4.7074,4.7067,4.7056,4.7052,4.7018,4.7027,4.7005,4.6965,4.6951,4.6938,4.6884,4.6889,4.6877,4.6847,4.6822,4.6815,4.6809,4.6787,4.678,4.6872,4.6872,4.6872,0,4.718,4.7174,4.7161,4.7139,4.713,4.7107,4.7131,4.7106,4.7089,4.7102,4.7067,4.7059,4.7041,4.7,4.6981,4.6991,4.6914,4.6939,4.6935,4.6932,4.6906,4.6899,4.6892,4.6983,4.6983,4.6984,0,0,4.7201,4.7182,4.7176,4.7144,4.7138,4.7136,4.7124,4.7127,4.7113,4.7106,4.7097,4.708,4.7056,4.704,4.7018,4.6973,4.6968,4.6952,4.6947,4.6943,4.6937,4.6911,4.6903,4.6985,4.6985,4.6985,0,0,4.721,4.7203,4.7211,4.7175,4.7163,4.7152,4.7131,4.7139,4.712,4.7122,4.7123,4.7118,4.708,4.7071,4.7092,4.7024,4.7045,4.704,4.7031,4.7024,4.7019,4.702,4.7111,0,0,0,0,0,4.7237,4.7205,4.7212,4.7206,4.7176,4.7149,4.7144,4.7146,4.7162,4.7145,4.7138,4.7146,4.7082,4.7101,4.7093,4.7069,4.7005,4.7001,4.6998,4.6976,4.6969,4.6963,0,0,0,0,0,0,4.7235,4.7228,4.7213,4.7201,4.7194,4.715,4.7176,4.7175,4.7163,4.7166,4.7147,4.7145,4.7144,4.7105,4.7098,4.7074,4.7113,4.7003,4.7,4.6998,4.6973,4.6968,4.6963,0,0,0,0,0,4.7233,4.7227,4.7179,4.7201,4.7195,4.719,4.7177,4.7177,4.7167,4.7156,4.7155,4.717,4.7143,4.7137,4.7101,4.7078,4.7118,4.7115,4.7001,4.6999,4.6997,4.6971,0,0,0,0,0,0,4.7232,4.7226,4.7178,4.7176,4.7214,4.7193,4.719,4.7178,4.7158,4.7157,4.7179,4.7181,4.7142,4.7138,4.7133,4.7079,4.7122,4.7119,4.7117,4.7,4.6998,4.6996,0,0,0,0,0,0,4.7229,4.7224,4.7177,4.7193,4.7193,4.7195,4.7192,4.7161,4.7158,4.7182,4.7183,4.718,4.7148,4.7138,4.7135,4.7085,4.7125,4.7122,4.712,4.7119,4.6998,4.6997,0,0,0,0,0,0,4.7227,4.7223,4.7194,4.7194,4.7194,4.7173,4.7167,4.7135,4.7175,4.7182,4.7179,4.718,4.7148,4.7144,4.7135,4.7088,4.7086,4.7125,4.7123,4.7122,4.7121,0,0,0,0,0,0,0,4.7225,4.7253,4.719,4.7194,4.7194,4.7159,4.7159,4.7158,4.7176,4.7177,4.7178,4.7179,4.7139,4.7137,4.7134,4.709,0,0,4.7125,4.7124,0,0,0,0,0,0,0,0,4.7254,4.7253,4.719,4.7189,4.7189,4.7159,4.7159,4.7158,4.7176,4.7177,4.7178,4.7179,4.7139,4.7136,4.7134,0,0,0,0,0,0,0,0,0,0,0,0,0,0,0,4.719,4.7189,0,4.7159,4.7159,4.7159,4.7176,4.7177,4.7178,4.7179,4.7138,4.7136,4.7134,0,0,0,0,0,0,0,0,0,0,0,0,0,0,0,0,0,0,0,0,0,0,0,0,0,0,0,0,0,0,0,0,0,0,0,0,0,0,0,0,0,0,0,0,0,0,0,0,0,0,0,0,0,0,0,0,0,0,0,0,0,0,0,0,0,0,0,0,0]}]]]